When you browse on this site, cookies collect data to enhance your experience and personalize the content and advertising you see.
Visit our Privacy Policy to learn more. By continuing to use the site, you agree to this use of cookies and data.
  • Em Portugal
  • Lista de países
  • Para 7 dias
  • Temperatura da água
  • Mapas de satélite
  • Mapa do tempo
  • Widgets de tempo
  • user-avatar
    Iniciar Sessão

    Previsão horária em Giumri

    Hoje, 22 Maio, Quarta-feira

    Tempo Temperatura Precipitação Vento Pressão Humidade
    00:00 +8°C° 0 mm 2 m/s 636 mmHg 92%
    01:00 +9°C° 0 mm 1 m/s 635 mmHg 92%
    02:00 +9°C° 0 mm 1 m/s 635 mmHg 92%
    03:00 +9°C° 0 mm 1 m/s 635 mmHg 92%
    04:00 +9°C° 0 mm 1 m/s 635 mmHg 89%
    05:00 +10°C° 0 mm 1 m/s 636 mmHg 86%
    06:00 +11°C° 0 mm 1 m/s 636 mmHg 83%
    07:00 +13°C° 0 mm 1 m/s 636 mmHg 76%
    08:00 +15°C° 0 mm 2 m/s 636 mmHg 68%
    09:00 +17°C° 0 mm 2 m/s 637 mmHg 61%
    10:00 +18°C° 0 mm 2 m/s 637 mmHg 57%
    11:00 +19°C° 0 mm 3 m/s 637 mmHg 54%
    12:00 +20°C° 0 mm 3 m/s 637 mmHg 50%
    13:00 +20°C° 0.7 mm 3 m/s 637 mmHg 53%
    14:00 +19°C° 0.7 mm 3 m/s 637 mmHg 56%
    15:00 +19°C° 0.7 mm 3 m/s 636 mmHg 59%
    16:00 +19°C° 0.5 mm 3 m/s 636 mmHg 61%
    17:00 +18°C° 0.5 mm 3 m/s 636 mmHg 62%
    18:00 +18°C° 0.5 mm 2 m/s 636 mmHg 64%
    19:00 +16°C° 0 mm 2 m/s 636 mmHg 69%
    20:00 +14°C° 0 mm 2 m/s 635 mmHg 74%
    21:00 +12°C° 0 mm 1 m/s 635 mmHg 79%
    22:00 +11°C° 0 mm 1 m/s 635 mmHg 78%
    23:00 +10°C° 0 mm 1 m/s 635 mmHg 77%

    Amanhã, 23 Maio, Quinta-feira

    Tempo Temperatura Precipitação Vento Pressão Humidade
    00:00 +10°C° 0 mm 1 m/s 634 mmHg 76%
    01:00 +9°C° 0 mm 1 m/s 634 mmHg 73%
    02:00 +9°C° 0 mm 1 m/s 634 mmHg 70%
    03:00 +9°C° 0 mm 1 m/s 633 mmHg 68%
    04:00 +9°C° 0 mm 1 m/s 634 mmHg 66%
    05:00 +10°C° 0 mm 1 m/s 634 mmHg 64%
    06:00 +11°C° 0 mm 1 m/s 634 mmHg 62%
    07:00 +13°C° 0 mm 1 m/s 634 mmHg 59%
    08:00 +15°C° 0 mm 1 m/s 635 mmHg 56%
    09:00 +17°C° 0 mm 2 m/s 635 mmHg 54%
    10:00 +17°C° 0.1 mm 2 m/s 635 mmHg 53%
    11:00 +18°C° 0.1 mm 2 m/s 635 mmHg 53%
    12:00 +18°C° 0.1 mm 2 m/s 635 mmHg 53%
    13:00 +18°C° 0.2 mm 3 m/s 635 mmHg 53%
    14:00 +19°C° 0.2 mm 3 m/s 635 mmHg 52%
    15:00 +19°C° 0.2 mm 4 m/s 635 mmHg 52%
    16:00 +18°C° 0.1 mm 3 m/s 634 mmHg 54%
    17:00 +18°C° 0.1 mm 3 m/s 634 mmHg 56%
    18:00 +17°C° 0.1 mm 2 m/s 634 mmHg 57%
    19:00 +15°C° 0 mm 2 m/s 634 mmHg 61%
    20:00 +13°C° 0 mm 2 m/s 634 mmHg 65%
    21:00 +10°C° 0 mm 2 m/s 634 mmHg 69%
    22:00 +10°C° 0 mm 2 m/s 634 mmHg 69%
    23:00 +10°C° 0 mm 1 m/s 634 mmHg 70%

    Depois de amanhã, 24 Maio, Sexta-feira

    Tempo Temperatura Precipitação Vento Pressão Humidade
    00:00 +9°C° 0 mm 1 m/s 634 mmHg 70%
    01:00 +9°C° 0 mm 1 m/s 633 mmHg 71%
    02:00 +9°C° 0 mm 1 m/s 633 mmHg 71%
    03:00 +9°C° 0 mm 1 m/s 633 mmHg 71%
    04:00 +9°C° 0 mm 1 m/s 633 mmHg 70%
    05:00 +10°C° 0 mm 1 m/s 634 mmHg 69%
    06:00 +11°C° 0 mm 1 m/s 634 mmHg 69%
    07:00 +13°C° 0 mm 1 m/s 635 mmHg 65%
    08:00 +15°C° 0 mm 2 m/s 635 mmHg 61%
    09:00 +18°C° 0 mm 2 m/s 636 mmHg 57%
    10:00 +19°C° 0 mm 3 m/s 636 mmHg 54%
    11:00 +20°C° 0 mm 3 m/s 636 mmHg 51%
    12:00 +21°C° 0 mm 4 m/s 636 mmHg 48%
    13:00 +22°C° 0.3 mm 4 m/s 636 mmHg 48%
    14:00 +22°C° 0.3 mm 4 m/s 636 mmHg 47%
    15:00 +23°C° 0.3 mm 4 m/s 636 mmHg 46%
    16:00 +21°C° 0.5 mm 4 m/s 636 mmHg 53%
    17:00 +20°C° 0.5 mm 3 m/s 635 mmHg 59%
    18:00 +18°C° 0.5 mm 3 m/s 635 mmHg 66%
    19:00 +17°C° 0.1 mm 2 m/s 635 mmHg 70%
    20:00 +15°C° 0.1 mm 2 m/s 635 mmHg 74%
    21:00 +14°C° 0.1 mm 1 m/s 635 mmHg 78%
    22:00 +13°C° 0.1 mm 1 m/s 635 mmHg 76%
    23:00 +13°C° 0.1 mm 1 m/s 635 mmHg 75%

    25 Maio, Sábado

    Tempo Temperatura Precipitação Vento Pressão Humidade
    00:00 +12°C° 0.1 mm 1 m/s 635 mmHg 74%
    01:00 +12°C° 0.2 mm 1 m/s 635 mmHg 74%
    02:00 +13°C° 0.2 mm 1 m/s 635 mmHg 74%
    03:00 +13°C° 0.2 mm 1 m/s 635 mmHg 74%
    04:00 +13°C° 0 mm 1 m/s 635 mmHg 75%
    05:00 +14°C° 0 mm 1 m/s 635 mmHg 75%
    06:00 +15°C° 0 mm 1 m/s 636 mmHg 75%
    07:00 +17°C° 0 mm 2 m/s 636 mmHg 67%
    08:00 +19°C° 0 mm 3 m/s 637 mmHg 58%
    09:00 +21°C° 0 mm 4 m/s 637 mmHg 50%
    10:00 +23°C° 0 mm 5 m/s 637 mmHg 46%
    11:00 +24°C° 0 mm 6 m/s 637 mmHg 42%
    12:00 +26°C° 0 mm 7 m/s 637 mmHg 38%
    13:00 +26°C° 0 mm 7 m/s 637 mmHg 38%
    14:00 +26°C° 0 mm 7 m/s 637 mmHg 39%
    15:00 +26°C° 0 mm 8 m/s 637 mmHg 39%
    16:00 +24°C° 0.2 mm 6 m/s 636 mmHg 45%
    17:00 +22°C° 0.2 mm 5 m/s 636 mmHg 51%
    18:00 +20°C° 0.2 mm 3 m/s 636 mmHg 57%
    19:00 +18°C° 0.1 mm 3 m/s 635 mmHg 61%
    20:00 +17°C° 0.1 mm 3 m/s 635 mmHg 64%
    21:00 +14°C° 0.1 mm 3 m/s 635 mmHg 67%
    22:00 +14°C° 0 mm 3 m/s 634 mmHg 68%
    23:00 +14°C° 0 mm 2 m/s 634 mmHg 68%

    26 Maio, Domingo

    Tempo Temperatura Precipitação Vento Pressão Humidade
    00:00 +14°C° 0 mm 2 m/s 634 mmHg 68%
    01:00 +14°C° 0 mm 2 m/s 633 mmHg 69%
    02:00 +13°C° 0 mm 1 m/s 633 mmHg 70%
    03:00 +12°C° 0 mm 1 m/s 633 mmHg 71%
    04:00 +13°C° 0 mm 1 m/s 633 mmHg 71%
    05:00 +13°C° 0 mm 1 m/s 634 mmHg 71%
    06:00 +14°C° 0 mm 1 m/s 634 mmHg 72%
    07:00 +16°C° 0 mm 1 m/s 634 mmHg 64%
    08:00 +19°C° 0 mm 1 m/s 635 mmHg 56%
    09:00 +21°C° 0 mm 1 m/s 636 mmHg 49%
    10:00 +23°C° 0 mm 2 m/s 636 mmHg 44%
    11:00 +24°C° 0 mm 3 m/s 636 mmHg 40%
    12:00 +25°C° 0 mm 4 m/s 636 mmHg 35%
    13:00 +25°C° 0.2 mm 5 m/s 636 mmHg 36%
    14:00 +25°C° 0.2 mm 5 m/s 636 mmHg 37%
    15:00 +24°C° 0.2 mm 6 m/s 635 mmHg 38%
    16:00 +22°C° 0.4 mm 5 m/s 635 mmHg 45%
    17:00 +21°C° 0.4 mm 4 m/s 635 mmHg 53%
    18:00 +19°C° 0.4 mm 3 m/s 635 mmHg 60%
    19:00 +17°C° 0.1 mm 3 m/s 635 mmHg 66%
    20:00 +14°C° 0.1 mm 3 m/s 635 mmHg 73%
    21:00 +13°C° 0.1 mm 2 m/s 634 mmHg 79%
    22:00 +12°C° 0.1 mm 2 m/s 634 mmHg 80%
    23:00 +12°C° 0.1 mm 2 m/s 634 mmHg 81%

    27 Maio, Segunda-feira

    Tempo Temperatura Precipitação Vento Pressão Humidade
    00:00 +10°C° 0.1 mm 2 m/s 634 mmHg 82%
    01:00 +10°C° 0 mm 2 m/s 634 mmHg 81%
    02:00 +9°C° 0 mm 2 m/s 634 mmHg 79%
    03:00 +9°C° 0 mm 2 m/s 634 mmHg 78%
    04:00 +11°C° 0 mm 1 m/s 635 mmHg 75%
    05:00 +12°C° 0 mm 1 m/s 635 mmHg 73%
    06:00 +13°C° 0 mm 1 m/s 636 mmHg 70%
    07:00 +15°C° 0 mm 1 m/s 636 mmHg 61%
    08:00 +18°C° 0 mm 1 m/s 637 mmHg 53%
    09:00 +19°C° 0 mm 0 m/s 637 mmHg 44%
    10:00 +21°C° 0 mm 1 m/s 637 mmHg 42%
    11:00 +22°C° 0 mm 1 m/s 637 mmHg 40%
    12:00 +23°C° 0 mm 2 m/s 637 mmHg 39%
    13:00 +24°C° 0.1 mm 2 m/s 637 mmHg 38%
    14:00 +24°C° 0.1 mm 1 m/s 637 mmHg 38%
    15:00 +24°C° 0.1 mm 1 m/s 637 mmHg 38%
    16:00 +23°C° 0.3 mm 2 m/s 637 mmHg 44%
    17:00 +21°C° 0.3 mm 2 m/s 637 mmHg 49%
    18:00 +21°C° 0.3 mm 2 m/s 637 mmHg 55%
    19:00 +19°C° 0.1 mm 2 m/s 637 mmHg 62%
    20:00 +17°C° 0.1 mm 2 m/s 637 mmHg 69%
    21:00 +14°C° 0.1 mm 3 m/s 637 mmHg 77%
    22:00 +14°C° 0.1 mm 2 m/s 636 mmHg 78%
    23:00 +13°C° 0.1 mm 2 m/s 636 mmHg 80%
    Mostrar mais